Regional Weather Roundup
Issued by NWS Sioux Falls, SD

Home | Current Version | Previous Version | Text Only | Print | Product List | Glossary On
Versions: 1 2 3 4 5 6 7 8 9 10 11 12 13 14 15 16 17 18 19 20 21 22 23 24 25 26 27 28 29 30 31 32 33 34 35 36 37 38 39 40 41 42 43 44 45 46 47 48 49 50
000
ASUS43 KFSD 072110
RWRFSD

WEATHER ROUNDUP FOR SE SOUTH DAKOTA/SW MINNESOTA/NW IOWA
NATIONAL WEATHER SERVICE SIOUX FALLS SD
300 PM CST SUN FEB 07 2016

NOTE: "FAIR" INDICATES FEW OR NO CLOUDS BELOW 12,000 FEET WITH NO
SIGNIFICANT WEATHER AND OR OBSTRUCTIONS TO VISIBILITY.


SDZ038>040-050-052>070-072200-
SOUTHEAST SOUTH DAKOTA

CITY           SKY/WX    TMP DP  RH WIND       PRES   REMARKS
BROOKINGS      FLURRIES  32  26  78 NW32G41   29.76R WCI  17
CHAMBERLAIN    CLOUDY    35  23  61 NW31G46   29.97R WCI  22
HURON          MIX PCPN  32  24  72 NW37G47   29.88R WCI  16
MADISON        MIX PCPN  32  32 100 NW30G38   29.81R WCI  18
MITCHELL       CLOUDY    34  26  72 NW30G44   29.92R WCI  20
SIOUX FALLS    CLOUDY    34  26  72 NW25G41   29.82R WCI  21
WINNER         CLOUDY    38  23  55 NW32G38   30.00R
YANKTON        CLOUDY    34  28  80 W26G37    29.90S WCI  21
$$

MNZ071-072-080-081-089-090-097-098-072200-
SOUTHWEST MINNESOTA

CITY           SKY/WX    TMP DP  RH WIND       PRES   REMARKS
FAIRMONT       PTSUNNY   37  27  65 W20       29.72R
JACKSON        LGT SNOW  34  30  86 W21G26    29.73S WCI  22
LUVERNE        CLOUDY    36  28  75 NW28G40   29.79S
MARSHALL       LGT SNOW  33  30  88 NW26      29.73R FOG     WCI  20
MONTEVIDEO     LGT SNOW  34  30  86 N21G38    29.72R WCI  22
PIPESTONE      CLOUDY    36  21  55 NW26G37   29.76R
REDWOOD FALLS  CLOUDY    36  30  79 NW23G31   29.69S
TRACY          FLURRIES  35  30  82 NW20G35   29.73R WCI  24
WINDOM         LGT RAIN  36  30  80 W22       29.72R
WORTHINGTON    CLOUDY    34  27  75 W22       29.76S WCI  22
$$

IAZ001>003-012>014-020>022-031-032-NEZ013-014-SDZ071-072200-
NORTHWEST IOWA

CITY           SKY/WX    TMP DP  RH WIND       PRES   REMARKS
CHEROKEE       FLURRIES  35  31  87 W16G30    29.84S WCI  24
DENISON        CLOUDY    37  28  70 NW24G32   29.86R
ESTHERVILLE    CLOUDY    34  29  82 W25       29.74S WCI  21
LE MARS        LGT SNOW  34  34 100 W24G35    29.87S WCI  21
ORANGE CITY    CLOUDY    34  30  86 NW25G31   29.82S WCI  21
SHELDON        MIX PCPN  34  30  86 W20       29.79R WCI  22
SIOUX CITY     LGT SNOW  36  30  79 NW23G31   29.88S
SPENCER        CLOUDY    35  28  75 W28       29.78S WCI  22
STORM LAKE       N/A     34  34 100 W31G38    29.82S WCI  20
$$

ABBREVIATIONS USED IN REMARKS
   TC - TEMPERATURE IN CELSIUS
  WCI - WIND CHILL INDEX
   HX - HEAT INDEX
  VSB - VISIBILITY




USA.gov is the U.S. government's official web portal to all federal, state and local government web resources and services.